{"data":{"norad_id":64444,"intl_designator":"2025-130G","name":"STARLINK-34399","alt_names":[],"object_type":"PAYLOAD","status":"ACTIVE","operator":null,"country":"US","launch_date":"2025-06-18","launch_site_code":"AFETR","launch_vehicle":null,"mission":null,"orbit_class":"UNKNOWN","rcs_meters":null,"size_class":null,"mass_kg":null,"dimensions":null,"purposes":["comms"],"wikipedia_slug":null,"has_3d_model":false,"image_url":null,"decayed_at":null,"tle_current":{"epoch":"2026-09-20T06:27:23.332320Z","epoch_age_seconds":154412,"freshness":"FRESH","line1":"1 64444U 25130G   26263.26902005  .00011381  00000+0  34759-3 0  9990","line2":"2 64444  53.1571 260.5075 0001264  67.2848 292.8288 15.34388935 70554","mean_motion":15.34388935,"eccentricity":0.0001264,"inclination_deg":53.1571,"raan_deg":260.5075,"arg_perigee_deg":67.2848,"mean_anomaly_deg":292.8288,"bstar":0.00034759,"rev_number":7055,"period_min":93.848434849408,"perigee_km":461.87144155321,"apogee_km":463.60081427995,"semimajor_km":6840.8731279166,"source":"CELESTRAK","updated_at":"2026-09-21T09:00:35.353171Z"}}}